SAS931 EKCH-KLAX

Flight info

Callsign SAS931
Flight time N/A
Altitude 34000
Route GOLGA T505 ASLID P990 KOVIK DCT ZOL P600 KLONN DCT GINGA DCT GOMUP DCT SUNOT/M083F360 NATA HOIST/N0487F360 DCT 5430N06000W 53N070W/N0486F380 51N080W 4830N09000W DCT KP12G DCT KP84A/N0480F400 DCT KD63U DCT KU51Q DCT PROMT Q88 HAKMN ANJLL4
Aircraft A333/H-SDE3GHIJ2J3J5M1RVWXY/LB2D1

Departure

Time 2026-05-05 12:34
Airport Copenhagen Kastrup Airport (EKCH)

Arrival

Time N/A
Airport Los Angeles International Airport (KLAX)
Time Latitude Longitude Altitude Speed Heading
2026-05-05 10:38 55.62646 12.65065 34 ft 0 kts 278°
2026-05-05 12:20 55.62646 12.65070 34 ft 1 kts 278°
2026-05-05 12:20 55.62644 12.65101 34 ft 3 kts 275°
2026-05-05 12:20 55.62642 12.65137 34 ft 3 kts 269°
2026-05-05 12:21 55.62643 12.65172 34 ft 3 kts 262°
2026-05-05 12:21 55.62647 12.65207 34 ft 3 kts 249°
2026-05-05 12:21 55.62652 12.65226 34 ft 2 kts 237°
2026-05-05 12:21 55.62654 12.65232 34 ft 0 kts 234°
2026-05-05 12:24 55.62650 12.65222 34 ft 3 kts 234°
2026-05-05 12:24 55.62624 12.65189 34 ft 6 kts 197°
2026-05-05 12:24 55.62580 12.65183 34 ft 7 kts 180°
2026-05-05 12:25 55.62526 12.65182 34 ft 8 kts 179°
2026-05-05 12:25 55.62465 12.65190 34 ft 9 kts 171°
2026-05-05 12:25 55.62399 12.65201 34 ft 10 kts 177°
2026-05-05 12:25 55.62328 12.65205 34 ft 11 kts 179°
2026-05-05 12:26 55.62254 12.65200 34 ft 11 kts 189°
2026-05-05 12:26 55.62183 12.65146 34 ft 11 kts 211°
2026-05-05 12:26 55.62114 12.65071 34 ft 12 kts 212°
2026-05-05 12:26 55.62045 12.64991 34 ft 12 kts 214°
2026-05-05 12:27 55.61976 12.64908 34 ft 12 kts 213°
2026-05-05 12:27 55.61904 12.64827 34 ft 12 kts 212°
2026-05-05 12:27 55.61831 12.64745 34 ft 12 kts 212°
2026-05-05 12:27 55.61758 12.64662 34 ft 13 kts 212°
2026-05-05 12:28 55.61684 12.64576 34 ft 14 kts 214°
2026-05-05 12:28 55.61583 12.64458 34 ft 19 kts 213°
2026-05-05 12:28 55.61477 12.64336 34 ft 18 kts 213°
2026-05-05 12:28 55.61377 12.64221 34 ft 17 kts 213°
2026-05-05 12:29 55.61280 12.64109 34 ft 18 kts 213°
2026-05-05 12:29 55.61166 12.63977 34 ft 20 kts 212°
2026-05-05 12:29 55.61054 12.63851 34 ft 18 kts 212°
2026-05-05 12:29 55.60948 12.63733 34 ft 17 kts 212°
2026-05-05 12:30 55.60851 12.63617 34 ft 17 kts 213°
2026-05-05 12:30 55.60756 12.63508 34 ft 16 kts 213°
2026-05-05 12:30 55.60666 12.63402 34 ft 15 kts 219°
2026-05-05 12:30 55.60586 12.63284 34 ft 15 kts 220°
2026-05-05 12:31 55.60510 12.63168 34 ft 13 kts 221°
2026-05-05 12:31 55.60443 12.63120 34 ft 9 kts 172°
2026-05-05 12:31 55.60416 12.63144 34 ft 1 kts 139°
2026-05-05 12:31 55.60410 12.63153 34 ft 2 kts 138°
2026-05-05 12:32 55.60392 12.63183 34 ft 7 kts 137°
2026-05-05 12:32 55.60351 12.63271 34 ft 10 kts 120°
2026-05-05 12:32 55.60364 12.63386 34 ft 11 kts 42°
2026-05-05 12:32 55.60444 12.63506 34 ft 30 kts 41°
2026-05-05 12:33 55.60747 12.63973 34 ft 84 kts 41°
2026-05-05 12:33 55.61320 12.64860 34 ft 134 kts 40°
2026-05-05 12:33 55.62123 12.66113 162 ft 165 kts 40°
2026-05-05 12:33 55.63010 12.67499 592 ft 175 kts 40°
2026-05-05 12:34 55.64030 12.68556 1243 ft 168 kts 10°
2026-05-05 12:34 55.65193 12.68623 1806 ft 173 kts
2026-05-05 12:34 55.66470 12.68779 1915 ft 195 kts
2026-05-05 12:34 55.67897 12.69058 1985 ft 218 kts
2026-05-05 12:35 55.69487 12.69444 2087 ft 243 kts
2026-05-05 12:35 55.71186 12.69908 2622 ft 246 kts
2026-05-05 12:35 55.72893 12.70363 3213 ft 250 kts
2026-05-05 12:35 55.74592 12.69790 3778 ft 251 kts 333°
2026-05-05 12:36 55.75955 12.67859 4358 ft 253 kts 313°
2026-05-05 12:36 55.77169 12.65590 4984 ft 254 kts 314°
2026-05-05 12:36 55.78423 12.63348 5559 ft 257 kts 315°
2026-05-05 12:36 55.79705 12.61118 6173 ft 258 kts 315°
2026-05-05 12:37 55.81006 12.58888 6726 ft 261 kts 316°
2026-05-05 12:37 55.82322 12.56656 7306 ft 264 kts 316°
2026-05-05 12:37 55.83657 12.54403 7899 ft 264 kts 316°
2026-05-05 12:37 55.85002 12.52142 8452 ft 268 kts 316°
2026-05-05 12:38 55.86362 12.49860 9043 ft 269 kts 316°
2026-05-05 12:38 55.87733 12.47560 9588 ft 271 kts 315°
2026-05-05 12:38 55.89109 12.45258 10158 ft 273 kts 315°
2026-05-05 12:38 55.90542 12.42856 10287 ft 293 kts 314°
2026-05-05 12:39 55.92076 12.40297 10373 ft 312 kts 314°
2026-05-05 12:39 55.93717 12.37568 10459 ft 332 kts 315°
2026-05-05 12:39 55.95451 12.34686 10586 ft 349 kts 315°
2026-05-05 12:39 55.97224 12.31740 11271 ft 348 kts 314°
2026-05-05 12:40 55.98997 12.28777 11894 ft 350 kts 313°
2026-05-05 12:40 56.00772 12.25789 12496 ft 352 kts 312°
2026-05-05 12:40 56.02556 12.22762 13045 ft 355 kts 312°
2026-05-05 12:40 56.04352 12.19704 13581 ft 359 kts 312°
2026-05-05 12:41 56.06165 12.16610 14124 ft 361 kts 312°
2026-05-05 12:41 56.07991 12.13487 14660 ft 364 kts 311°
2026-05-05 12:41 56.09825 12.10344 15183 ft 367 kts 311°
2026-05-05 12:41 56.11673 12.07171 15703 ft 370 kts 311°
2026-05-05 12:42 56.13538 12.03964 16197 ft 372 kts 311°
2026-05-05 12:42 56.15414 12.00732 16682 ft 375 kts 311°
2026-05-05 12:42 56.17299 11.97478 17165 ft 378 kts 311°
2026-05-05 12:42 56.19197 11.94195 17645 ft 380 kts 310°
2026-05-05 12:43 56.21111 11.90880 18091 ft 383 kts 310°
2026-05-05 12:43 56.23037 11.87537 18557 ft 386 kts 310°
2026-05-05 12:43 56.24969 11.84178 19016 ft 388 kts 310°
2026-05-05 12:43 56.26911 11.80793 19446 ft 391 kts 310°
2026-05-05 12:44 56.28870 11.77375 19878 ft 393 kts 310°
2026-05-05 12:44 56.30711 11.73757 20283 ft 391 kts 302°
2026-05-05 12:44 56.32112 11.69600 20692 ft 387 kts 291°
2026-05-05 12:44 56.33008 11.65066 21109 ft 384 kts 280°
2026-05-05 12:45 56.33398 11.60315 21468 ft 384 kts 273°
2026-05-05 12:45 56.33653 11.55521 21874 ft 386 kts 273°
2026-05-05 12:45 56.33891 11.50683 22240 ft 388 kts 272°
2026-05-05 12:45 56.34116 11.45834 22661 ft 389 kts 272°
2026-05-05 12:46 56.34549 11.41044 22980 ft 395 kts 281°
2026-05-05 12:46 56.35477 11.36291 23406 ft 400 kts 291°
2026-05-05 12:46 56.36863 11.31957 23711 ft 409 kts 301°
2026-05-05 12:46 56.38772 11.28011 24084 ft 416 kts 309°
2026-05-05 12:47 56.40794 11.24342 24422 ft 418 kts 309°
2026-05-05 12:47 56.42858 11.20629 24774 ft 420 kts 310°
2026-05-05 12:47 56.44940 11.16906 25129 ft 421 kts 310°
2026-05-05 12:47 56.47031 11.13187 25455 ft 423 kts 310°
2026-05-05 12:48 56.49171 11.09394 25764 ft 425 kts 310°
2026-05-05 12:48 56.51258 11.05705 26128 ft 426 kts 310°
2026-05-05 12:48 56.53386 11.01946 26402 ft 428 kts 310°
2026-05-05 12:48 56.55523 10.98178 26721 ft 429 kts 310°
2026-05-05 12:49 56.57670 10.94391 27011 ft 431 kts 310°
2026-05-05 12:49 56.59819 10.90600 27352 ft 431 kts 310°
2026-05-05 12:49 56.61974 10.86797 27602 ft 434 kts 310°
2026-05-05 12:49 56.64145 10.82964 27878 ft 435 kts 310°
2026-05-05 12:50 56.66318 10.79125 28163 ft 437 kts 310°
2026-05-05 12:50 56.68501 10.75264 28421 ft 438 kts 310°
2026-05-05 12:50 56.70689 10.71391 28672 ft 440 kts 310°
2026-05-05 12:50 56.72890 10.67492 28924 ft 442 kts 310°
2026-05-05 12:51 56.75093 10.63584 29166 ft 443 kts 310°
2026-05-05 12:51 56.77305 10.59657 29447 ft 444 kts 310°
2026-05-05 12:51 56.79518 10.55721 29686 ft 445 kts 310°
2026-05-05 12:51 56.81740 10.51765 29910 ft 447 kts 310°
2026-05-05 12:52 56.83966 10.47798 30145 ft 448 kts 310°
2026-05-05 12:52 56.86192 10.43827 30485 ft 446 kts 310°
2026-05-05 12:52 56.88406 10.39866 30785 ft 445 kts 310°
2026-05-05 12:52 56.90620 10.35898 31065 ft 445 kts 310°
2026-05-05 12:53 56.92825 10.31938 31351 ft 444 kts 310°
2026-05-05 12:53 56.95030 10.27968 31630 ft 444 kts 310°
2026-05-05 12:53 56.97196 10.24063 31912 ft 443 kts 310°
2026-05-05 12:53 56.99385 10.20105 32224 ft 441 kts 310°
2026-05-05 12:54 57.03737 10.12210 32733 ft 440 kts 309°
2026-05-05 12:54 57.05912 10.08256 33011 ft 439 kts 309°
2026-05-05 12:54 57.08075 10.04312 33244 ft 438 kts 309°
2026-05-05 12:55 57.10229 10.00349 33493 ft 436 kts 307°
2026-05-05 12:55 57.12060 9.95982 33734 ft 428 kts 297°
2026-05-05 12:55 57.13594 9.91297 33901 ft 428 kts 296°
2026-05-05 12:56 57.16662 9.81833 33959 ft 432 kts 296°
2026-05-05 12:56 57.19740 9.72343 33962 ft 430 kts 296°
2026-05-05 12:57 57.22793 9.62915 33961 ft 426 kts 296°
2026-05-05 12:57 57.25813 9.53561 33960 ft 422 kts 296°
2026-05-05 12:58 57.28809 9.44252 33959 ft 421 kts 296°
2026-05-05 12:58 57.31796 9.34935 33958 ft 422 kts 296°
2026-05-05 12:59 57.34787 9.25576 33956 ft 423 kts 296°
2026-05-05 12:59 57.37788 9.16160 33954 ft 425 kts 296°
2026-05-05 13:00 57.42281 9.01998 33954 ft 424 kts 296°
2026-05-05 13:01 57.48218 8.83143 33952 ft 422 kts 295°
2026-05-05 13:01 57.51165 8.73725 33950 ft 421 kts 295°
2026-05-05 13:02 57.54101 8.64304 33949 ft 421 kts 295°
2026-05-05 13:02 57.57196 8.55038 33945 ft 426 kts 303°
2026-05-05 13:03 57.60934 8.46460 33944 ft 427 kts 304°
2026-05-05 13:03 57.64836 8.38094 33936 ft 427 kts 305°
2026-05-05 13:04 57.68757 8.29788 33934 ft 426 kts 305°
2026-05-05 13:04 57.72670 8.21503 33934 ft 424 kts 305°
2026-05-05 13:05 57.76545 8.13277 33932 ft 424 kts 305°
2026-05-05 13:05 57.80441 8.04981 33934 ft 424 kts 305°
2026-05-05 13:06 57.84331 7.96671 33937 ft 424 kts 305°
2026-05-05 13:06 57.88215 7.88340 33937 ft 424 kts 305°
2026-05-05 13:07 57.92096 7.79988 33937 ft 424 kts 305°
2026-05-05 13:07 57.95969 7.71620 33937 ft 424 kts 305°
2026-05-05 13:08 57.99841 7.63226 33938 ft 424 kts 305°
2026-05-05 13:08 58.03710 7.54808 33938 ft 425 kts 304°
2026-05-05 13:09 58.06920 7.47797 33939 ft 424 kts 304°
2026-05-05 13:09 58.10773 7.39355 33940 ft 424 kts 304°
2026-05-05 13:10 58.14616 7.30905 33942 ft 423 kts 304°
2026-05-05 13:10 58.18453 7.22437 33945 ft 424 kts 304°
2026-05-05 13:11 58.22287 7.13945 33947 ft 424 kts 304°
2026-05-05 13:11 58.26120 7.05425 33949 ft 424 kts 304°
2026-05-05 13:12 58.29944 6.96893 33954 ft 425 kts 304°
2026-05-05 13:12 58.33767 6.88331 33961 ft 424 kts 304°
2026-05-05 13:13 58.37582 6.79757 33964 ft 424 kts 304°
2026-05-05 13:13 58.41387 6.71171 33970 ft 424 kts 304°
2026-05-05 13:14 58.45181 6.62579 33978 ft 423 kts 304°
2026-05-05 13:14 58.48971 6.53965 33985 ft 423 kts 304°
2026-05-05 13:15 58.52731 6.45386 33991 ft 424 kts 304°
2026-05-05 13:15 58.56514 6.36726 33997 ft 424 kts 304°
2026-05-05 13:16 58.60290 6.28047 34002 ft 424 kts 304°
2026-05-05 13:16 58.64061 6.19349 34007 ft 424 kts 304°
2026-05-05 13:17 58.67822 6.10639 34011 ft 424 kts 304°
2026-05-05 13:17 58.71578 6.01909 34015 ft 424 kts 303°
2026-05-05 13:18 58.75329 5.93157 34018 ft 424 kts 304°
2026-05-05 13:18 58.79073 5.84391 34020 ft 423 kts 304°
2026-05-05 13:19 58.82640 5.75432 34021 ft 416 kts 295°
2026-05-05 13:19 58.84665 5.65167 34022 ft 407 kts 278°
2026-05-05 13:20 58.84792 5.54343 34022 ft 405 kts 261°
2026-05-05 13:20 58.83199 5.43893 34022 ft 407 kts 252°
2026-05-05 13:21 58.81292 5.33582 34022 ft 408 kts 252°
2026-05-05 13:21 58.79331 5.23292 34024 ft 409 kts 252°
2026-05-05 13:22 58.77336 5.13034 34020 ft 408 kts 251°
2026-05-05 13:22 58.75320 5.02812 34019 ft 408 kts 251°
2026-05-05 13:23 58.73247 4.92408 34014 ft 408 kts 251°
2026-05-05 13:23 58.71247 4.82454 34013 ft 407 kts 251°
2026-05-05 13:24 58.69192 4.72301 34012 ft 407 kts 251°
2026-05-05 13:24 58.67126 4.62151 34013 ft 408 kts 251°
2026-05-05 13:25 58.65047 4.51996 34013 ft 409 kts 251°
2026-05-05 13:25 58.63067 4.41787 34013 ft 407 kts 255°
2026-05-05 13:26 58.61489 4.31335 34014 ft 408 kts 256°
2026-05-05 13:26 58.59938 4.20881 34022 ft 407 kts 256°
2026-05-05 13:27 58.58402 4.10431 34024 ft 407 kts 256°
2026-05-05 13:27 58.56880 4.00050 34025 ft 408 kts 256°
2026-05-05 13:28 58.55345 3.89593 34027 ft 408 kts 256°
2026-05-05 13:28 58.53808 3.79147 34028 ft 408 kts 256°
2026-05-05 13:29 58.52264 3.68695 34029 ft 408 kts 256°
2026-05-05 13:29 58.50713 3.58256 34029 ft 408 kts 256°
2026-05-05 13:30 58.49155 3.47829 34034 ft 408 kts 256°
2026-05-05 13:30 58.47589 3.37412 34036 ft 408 kts 256°
2026-05-05 13:31 58.46016 3.27015 34038 ft 407 kts 256°
2026-05-05 13:31 58.44437 3.16632 34039 ft 407 kts 255°
2026-05-05 13:32 58.42849 3.06257 34039 ft 407 kts 255°
2026-05-05 13:32 58.41251 2.95888 34039 ft 408 kts 255°
2026-05-05 13:33 58.39644 2.85508 34041 ft 409 kts 255°
2026-05-05 13:33 58.38457 2.74939 34045 ft 408 kts 261°
2026-05-05 13:34 58.37610 2.64258 34046 ft 408 kts 263°
2026-05-05 13:34 58.36852 2.53541 34048 ft 408 kts 263°
2026-05-05 13:35 58.36106 2.42821 34050 ft 408 kts 263°
2026-05-05 13:35 58.35362 2.32166 34051 ft 409 kts 263°
2026-05-05 13:36 58.34605 2.21433 34051 ft 409 kts 263°
2026-05-05 13:36 58.33834 2.10621 34052 ft 410 kts 263°
2026-05-05 13:37 58.33058 1.99876 34052 ft 410 kts 263°
2026-05-05 13:37 58.32277 1.89204 34052 ft 410 kts 263°
2026-05-05 13:38 58.31481 1.78459 34052 ft 410 kts 263°
2026-05-05 13:38 58.30669 1.67637 34052 ft 411 kts 263°
2026-05-05 13:39 58.29860 1.56974 34052 ft 410 kts 263°
2026-05-05 13:39 58.29037 1.46265 34052 ft 409 kts 263°
2026-05-05 13:40 58.28207 1.35576 34053 ft 409 kts 263°
2026-05-05 13:40 58.27367 1.24886 34056 ft 409 kts 263°
2026-05-05 13:41 58.26517 1.14182 34055 ft 410 kts 262°
2026-05-05 13:41 58.25655 1.03452 34056 ft 411 kts 262°
2026-05-05 13:42 58.24783 0.92716 34057 ft 412 kts 262°
2026-05-05 13:42 58.23902 0.81981 34058 ft 412 kts 262°
2026-05-05 13:43 58.23009 0.71232 34060 ft 413 kts 262°
2026-05-05 13:43 58.22106 0.60466 34061 ft 413 kts 262°
2026-05-05 13:44 58.21194 0.49707 34063 ft 414 kts 262°
2026-05-05 13:44 58.20270 0.38920 34065 ft 415 kts 262°
2026-05-05 13:45 58.19335 0.28118 34067 ft 416 kts 262°
2026-05-05 13:45 58.18388 0.17292 34069 ft 416 kts 262°
2026-05-05 13:46 58.17433 0.06487 34071 ft 416 kts 262°
2026-05-05 13:46 58.16465 -0.04327 34073 ft 416 kts 262°
2026-05-05 13:47 58.15491 -0.15145 34075 ft 417 kts 262°
2026-05-05 13:47 58.14506 -0.25975 34077 ft 418 kts 262°
2026-05-05 13:48 58.13509 -0.36808 34079 ft 418 kts 262°
2026-05-05 13:48 58.12503 -0.47632 34082 ft 417 kts 262°